Denver, CO

11:04 AM MDT on May 24, 2017 (GMT -0600)
Front Range

Weather History for KFTG - May, 2013

Change the Weather History Date:

Monday, May 27, 2013

  Actual Average (KBKF) Record (KBKF)
Temperature  
Mean Temperature 70 °F -  
Max Temperature 84 °F 73 °F 89 °F (2006)
Min Temperature 55 °F 47 °F 39 °F (1997)
Cooling Degree Days 4    
Growing Degree Days 20 (Base 50)    
Moisture  
Dew Point 44 °F    
Average Humidity 55    
Maximum Humidity 82    
Minimum Humidity 12    
Precipitation  
Precipitation 0.00 in - - ()
Sea Level Pressure  
Sea Level Pressure 29.87 in    
Wind  
Wind Speed 8 mph (South)    
Max Wind Speed 18 mph    
Max Gust Speed 25 mph    
Visibility 10 miles    
Events Rain , Thunderstorm    
Averages and records for this station are not official NWS values.
T = Trace of Precipitation, MM = Missing Value Source: NWS Daily Summary

Daily Weather History Graph

Daily Weather History Graph

Search for Another Location

Airport or City:

Trip Planner

Search our weather history database for the weather conditions in past years. The results will help you decide how hot, cold, wet, or windy it might be!

Date:

Astronomy

May. 27, 2013 Rise Set
Actual Time 5:34 AM MDT 8:16 PM MDT
Civil Twilight 5:02 AM MDT 8:48 PM MDT
Nautical Twilight 4:23 AM MDT 9:28 PM MDT
Astronomical Twilight 3:38 AM MDT 10:13 PM MDT
Moon 10:58 PM MDT (5/27) 8:14 AM MDT (5/27)
Length of Visible Light 15h 45m
Length of Day
14h 42m
Waning Gibbous, 90% of the Moon is Illuminated
May 27
Waning Gibbous
May 31
Last Quarter
Jun 8
New
Jun 16
First Quarter
Jun 23
Full

Hourly Weather History & Observations

Time (MDT) Temp. Dew Point Humidity Pressure Visibility Wind Dir Wind Speed Gust Speed Precip Events Conditions
12:17 AM 62.6 °F 39.2 °F 42% 29.91 in 10.0 mi SSW 5.8 mph - N/A   Mostly Cloudy
12:37 AM 66.2 °F 41.0 °F 40% 29.92 in 10.0 mi SW 12.7 mph 19.6 mph N/A   Overcast
12:57 AM 62.6 °F 51.8 °F 68% 29.91 in 7.0 mi Calm Calm - N/A Rain , Thunderstorm Thunderstorms and Rain
1:17 AM 68.0 °F 44.6 °F 43% 29.89 in 10.0 mi Calm Calm - N/A Rain Light Rain
1:36 AM 64.4 °F 46.4 °F 52% 29.89 in 10.0 mi ESE 4.6 mph - N/A   Clear
1:57 AM 62.6 °F 51.8 °F 68% 29.89 in 10.0 mi WSW 11.5 mph 16.1 mph N/A   Clear
2:17 AM 60.8 °F 46.4 °F 59% 29.88 in 10.0 mi West 8.1 mph - N/A   Clear
2:37 AM 59.0 °F 44.6 °F 59% 29.87 in 10.0 mi WSW 6.9 mph - N/A   Clear
2:57 AM 59.0 °F 44.6 °F 59% 29.87 in 10.0 mi SW 9.2 mph - N/A   Clear
3:17 AM 59.0 °F 46.4 °F 63% 29.87 in 10.0 mi SW 6.9 mph - N/A   Clear
3:37 AM 59.0 °F 44.6 °F 59% 29.87 in 10.0 mi SSW 8.1 mph - N/A   Clear
3:57 AM 59.0 °F 44.6 °F 59% 29.88 in 10.0 mi SW 10.4 mph - N/A   Clear
4:17 AM 60.8 °F 44.6 °F 55% 29.88 in 10.0 mi SW 10.4 mph - N/A   Clear
4:37 AM 57.2 °F 42.8 °F 59% 29.90 in 10.0 mi East 10.4 mph 16.1 mph N/A   Clear
4:57 AM 55.4 °F 44.6 °F 67% 29.90 in 10.0 mi SE 8.1 mph - N/A   Clear
5:17 AM 55.4 °F 46.4 °F 72% 29.90 in 10.0 mi SSE 6.9 mph - N/A   Clear
5:36 AM 55.4 °F 48.2 °F 77% 29.90 in 10.0 mi SSE 5.8 mph - N/A   Scattered Clouds
5:57 AM 55.4 °F 50.0 °F 82% 29.89 in 10.0 mi South 8.1 mph - N/A   Clear
6:17 AM 59.0 °F 51.8 °F 77% 29.90 in 10.0 mi SSW 9.2 mph - N/A   Clear
6:37 AM 59.0 °F 53.6 °F 82% 29.90 in 10.0 mi SSW 10.4 mph - N/A   Clear
6:57 AM 60.8 °F 51.8 °F 72% 29.91 in 10.0 mi South 10.4 mph - N/A   Clear
6:58 AM 60.8 °F 51.8 °F 72% 29.90 in 10.0 mi South 9.2 mph - N/A   Clear
7:52 AM 68.0 °F 57.2 °F 68% 29.90 in 40.0 mi South 5.8 mph - N/A   Scattered Clouds
9:47 AM 77.0 °F 26.6 °F 16% 29.88 in 40.0 mi West 11.5 mph - N/A   Scattered Clouds
10:48 AM 80.6 °F 24.8 °F 13% 29.88 in 40.0 mi WNW 3.5 mph - N/A   Scattered Clouds
11:47 AM 80.6 °F 23.0 °F 12% 29.87 in 40.0 mi NNW 12.7 mph 18.4 mph N/A   Mostly Cloudy
3:54 PM 84.2 °F 39.2 °F 20% 29.79 in 40.0 mi WNW 6.9 mph - N/A   Mostly Cloudy
9:17 PM 68.0 °F 41.0 °F 37% 29.83 in 10.0 mi ESE 8.1 mph - N/A   Mostly Cloudy
9:36 PM 69.8 °F 41.0 °F 35% 29.82 in 10.0 mi East 18.4 mph 25.3 mph N/A   Mostly Cloudy
9:57 PM 64.4 °F 44.6 °F 49% 29.84 in 10.0 mi ESE 13.8 mph 24.2 mph N/A   Scattered Clouds
10:17 PM 62.6 °F 44.6 °F 52% 29.85 in 10.0 mi East 8.1 mph - N/A   Clear
10:37 PM 62.6 °F 44.6 °F 52% 29.84 in 10.0 mi SE 12.7 mph 16.1 mph N/A   Clear
10:57 PM 62.6 °F 44.6 °F 52% 29.85 in 10.0 mi SSE 8.1 mph - N/A   Clear
11:17 PM 60.8 °F 44.6 °F 55% 29.84 in 10.0 mi SSE 6.9 mph - N/A   Clear
11:37 PM 59.0 °F 44.6 °F 59% 29.83 in 10.0 mi SSE 9.2 mph - N/A   Clear
11:57 PM 59.0 °F 44.6 °F 59% 29.83 in 10.0 mi South 8.1 mph - N/A   Clear